Time,TemperatureF,DewpointF,PressureIn,WindDirection,WindDirectionDegrees,WindSpeedMPH,WindSpeedGustMPH,Humidity,HourlyPrecipIn,Conditions,Clouds,dailyrainin,SoftwareType,DateUTC
2013-02-24 00:00:00,37.1,34.9,29.75,NE,45,0.7,4.0,92,0.00,,,0.36,WUHU216HW,2013-02-24 05:00:00,
2013-02-24 00:05:00,37.1,34.9,29.75,ENE,68,3.4,4.0,92,0.01,,,0.01,WUHU216HW,2013-02-24 05:05:00,
2013-02-24 00:10:00,37.1,34.9,29.75,North,0,0.4,4.0,92,0.01,,,0.01,WUHU216HW,2013-02-24 05:10:00,
2013-02-24 00:15:00,37.1,34.9,29.75,NE,45,1.8,4.0,92,0.01,,,0.01,WUHU216HW,2013-02-24 05:15:00,
2013-02-24 00:20:00,37.1,34.9,29.75,ENE,68,4.7,4.7,92,0.01,,,0.01,WUHU216HW,2013-02-24 05:20:00,
2013-02-24 00:25:00,37.1,34.9,29.74,ENE,68,3.4,4.7,92,0.01,,,0.01,WUHU216HW,2013-02-24 05:25:00,
2013-02-24 00:30:00,37.1,34.9,29.75,NE,45,0.2,4.7,92,0.01,,,0.01,WUHU216HW,2013-02-24 05:30:00,
2013-02-24 00:35:00,37.1,34.9,29.74,NE,45,2.0,4.3,92,0.01,,,0.01,WUHU216HW,2013-02-24 05:35:00,
2013-02-24 00:40:00,37.3,35.1,29.74,ENE,68,0.7,4.3,92,0.01,,,0.01,WUHU216HW,2013-02-24 05:40:00,
2013-02-24 00:45:00,37.3,35.1,29.74,East,90,1.1,2.9,92,0.01,,,0.01,WUHU216HW,2013-02-24 05:45:00,
2013-02-24 00:50:00,37.3,35.1,29.74,NE,45,1.1,5.1,92,0.01,,,0.01,WUHU216HW,2013-02-24 05:50:00,
2013-02-24 00:55:00,37.3,35.1,29.74,NNE,23,0.4,5.1,92,0.01,,,0.01,WUHU216HW,2013-02-24 05:55:00,
2013-02-24 01:00:00,37.4,35.3,29.74,ESE,113,1.3,3.4,92,0.00,,,0.01,WUHU216HW,2013-02-24 06:00:00,
2013-02-24 01:05:00,37.4,35.3,29.74,ENE,68,0.9,3.4,92,0.00,,,0.01,WUHU216HW,2013-02-24 06:05:00,
2013-02-24 01:10:00,37.4,35.3,29.74,ENE,68,1.1,3.6,92,0.00,,,0.01,WUHU216HW,2013-02-24 06:10:00,
2013-02-24 01:15:00,37.4,35.3,29.74,East,90,1.8,3.6,92,0.00,,,0.01,WUHU216HW,2013-02-24 06:15:00,
2013-02-24 01:20:00,37.4,35.3,29.74,NE,45,2.7,4.7,92,0.00,,,0.01,WUHU216HW,2013-02-24 06:20:00,
2013-02-24 01:25:00,37.4,35.3,29.74,North,0,0.7,4.7,92,0.00,,,0.01,WUHU216HW,2013-02-24 06:25:00,
2013-02-24 01:30:00,37.4,35.3,29.74,NNE,23,2.2,4.5,92,0.00,,,0.01,WUHU216HW,2013-02-24 06:30:00,
2013-02-24 01:35:00,37.6,35.5,29.74,ENE,68,0.9,4.0,92,0.00,,,0.01,WUHU216HW,2013-02-24 06:35:00,
2013-02-24 01:40:00,37.6,35.5,29.74,East,90,1.1,3.8,92,0.00,,,0.01,WUHU216HW,2013-02-24 06:40:00,
2013-02-24 01:45:00,37.6,35.5,29.74,NE,45,1.1,3.8,92,0.00,,,0.01,WUHU216HW,2013-02-24 06:45:00,
2013-02-24 01:50:00,37.6,35.5,29.75,NNE,23,0.4,4.0,92,0.00,,,0.01,WUHU216HW,2013-02-24 06:50:00,
2013-02-24 01:55:00,37.6,35.5,29.75,East,90,2.0,4.0,92,0.00,,,0.01,WUHU216HW,2013-02-24 06:55:00,
2013-02-24 02:00:00,37.6,35.5,29.75,NE,45,1.1,3.1,92,0.00,,,0.01,WUHU216HW,2013-02-24 07:00:00,
2013-02-24 02:05:00,37.6,35.5,29.74,NE,45,0.4,3.1,92,0.00,,,0.01,WUHU216HW,2013-02-24 07:05:00,
2013-02-24 02:10:00,37.6,35.5,29.74,NE,45,0.7,2.2,92,0.00,,,0.01,WUHU216HW,2013-02-24 07:10:00,
2013-02-24 02:15:00,37.4,35.3,29.74,SE,135,0.9,3.1,92,0.00,,,0.01,WUHU216HW,2013-02-24 07:15:00,
2013-02-24 02:20:00,37.4,35.3,29.74,NE,45,2.5,3.1,92,0.00,,,0.01,WUHU216HW,2013-02-24 07:20:00,
2013-02-24 02:25:00,37.4,35.3,29.74,NE,45,2.5,4.3,92,0.00,,,0.01,WUHU216HW,2013-02-24 07:25:00,
2013-02-24 02:30:00,37.4,35.3,29.74,NNE,23,2.0,4.3,92,0.00,,,0.01,WUHU216HW,2013-02-24 07:30:00,
2013-02-24 02:35:00,37.4,35.3,29.74,East,90,2.0,3.6,92,0.00,,,0.01,WUHU216HW,2013-02-24 07:35:00,
2013-02-24 02:40:00,37.4,35.3,29.74,North,0,3.4,3.4,92,0.00,,,0.01,WUHU216HW,2013-02-24 07:40:00,
2013-02-24 02:45:00,37.4,35.3,29.73,NNW,338,1.6,3.4,92,0.00,,,0.01,WUHU216HW,2013-02-24 07:45:00,
2013-02-24 02:50:00,37.4,35.3,29.73,NNE,23,1.1,2.9,92,0.00,,,0.01,WUHU216HW,2013-02-24 07:50:00,
2013-02-24 02:55:00,37.4,35.3,29.73,North,0,0.7,3.4,92,0.00,,,0.01,WUHU216HW,2013-02-24 07:55:00,
2013-02-24 03:00:00,37.4,35.3,29.73,West,270,1.3,3.6,92,0.00,,,0.01,WUHU216HW,2013-02-24 08:00:00,
2013-02-24 03:05:00,37.4,35.3,29.73,North,0,1.8,3.6,92,0.00,,,0.01,WUHU216HW,2013-02-24 08:05:00,
2013-02-24 03:10:00,37.4,35.3,29.73,NE,45,0.0,2.5,92,0.00,,,0.01,WUHU216HW,2013-02-24 08:10:00,
2013-02-24 03:15:00,37.6,35.5,29.74,NW,315,2.0,2.5,92,0.00,,,0.01,WUHU216HW,2013-02-24 08:15:00,
2013-02-24 03:20:00,37.6,35.5,29.73,WNW,293,1.1,3.1,92,0.00,,,0.01,WUHU216HW,2013-02-24 08:20:00,
2013-02-24 03:25:00,37.6,35.5,29.73,NNW,338,1.6,3.1,92,0.00,,,0.01,WUHU216HW,2013-02-24 08:25:00,
2013-02-24 03:30:00,37.6,35.5,29.73,WNW,293,0.4,2.0,92,0.01,,,0.02,WUHU216HW,2013-02-24 08:30:00,
2013-02-24 03:35:00,37.6,35.5,29.73,North,0,0.4,2.0,92,0.01,,,0.02,WUHU216HW,2013-02-24 08:35:00,
2013-02-24 03:40:00,37.6,35.5,29.73,NNW,338,1.1,2.5,92,0.01,,,0.02,WUHU216HW,2013-02-24 08:40:00,
2013-02-24 03:45:00,37.6,35.5,29.73,NNW,338,1.3,4.3,92,0.01,,,0.02,WUHU216HW,2013-02-24 08:45:00,
2013-02-24 03:50:00,37.6,35.5,29.74,WNW,293,1.8,4.3,92,0.01,,,0.02,WUHU216HW,2013-02-24 08:50:00,
2013-02-24 03:55:00,37.4,35.3,29.74,WNW,293,3.1,3.6,92,0.01,,,0.02,WUHU216HW,2013-02-24 08:55:00,
2013-02-24 04:00:00,37.4,35.3,29.74,West,270,1.1,4.5,92,0.01,,,0.02,WUHU216HW,2013-02-24 09:00:00,
2013-02-24 04:05:00,37.4,35.3,29.74,NW,315,1.1,4.5,92,0.01,,,0.02,WUHU216HW,2013-02-24 09:05:00,
2013-02-24 04:10:00,37.4,35.3,29.74,NW,315,1.6,4.0,92,0.01,,,0.02,WUHU216HW,2013-02-24 09:10:00,
2013-02-24 04:15:00,37.4,35.3,29.74,North,0,2.2,3.8,92,0.01,,,0.02,WUHU216HW,2013-02-24 09:15:00,
2013-02-24 04:20:00,37.4,35.3,29.74,West,270,0.7,3.8,92,0.01,,,0.02,WUHU216HW,2013-02-24 09:20:00,
2013-02-24 04:25:00,37.4,35.3,29.75,SW,225,2.7,4.0,92,0.01,,,0.02,WUHU216HW,2013-02-24 09:25:00,
2013-02-24 04:30:00,37.4,35.3,29.74,WNW,293,0.7,4.0,92,0.00,,,0.02,WUHU216HW,2013-02-24 09:30:00,
2013-02-24 04:35:00,37.4,35.3,29.74,NNW,338,4.3,4.3,92,0.00,,,0.02,WUHU216HW,2013-02-24 09:35:00,
2013-02-24 04:40:00,37.4,35.3,29.74,NW,315,2.5,4.3,92,0.00,,,0.02,WUHU216HW,2013-02-24 09:40:00,
2013-02-24 04:45:00,37.4,35.3,29.73,NNE,23,1.1,3.6,92,0.00,,,0.02,WUHU216HW,2013-02-24 09:45:00,
2013-02-24 04:50:00,37.4,35.3,29.73,North,0,2.0,3.4,92,0.00,,,0.02,WUHU216HW,2013-02-24 09:50:00,
2013-02-24 04:55:00,37.4,35.3,29.72,ENE,68,0.9,4.0,92,0.00,,,0.02,WUHU216HW,2013-02-24 09:55:00,
2013-02-24 05:00:00,37.4,35.3,29.71,NW,315,4.7,4.7,92,0.00,,,0.02,WUHU216HW,2013-02-24 10:00:00,
2013-02-24 05:05:00,37.4,35.3,29.70,North,0,2.9,4.7,92,0.00,,,0.02,WUHU216HW,2013-02-24 10:05:00,
2013-02-24 05:10:00,37.4,35.3,29.71,NNE,23,0.4,4.7,92,0.00,,,0.02,WUHU216HW,2013-02-24 10:10:00,
2013-02-24 05:15:00,37.3,35.1,29.71,NNW,338,2.5,5.6,92,0.00,,,0.02,WUHU216HW,2013-02-24 10:15:00,
2013-02-24 05:20:00,37.3,35.1,29.71,North,0,1.1,5.6,92,0.00,,,0.02,WUHU216HW,2013-02-24 10:20:00,
2013-02-24 05:25:00,37.3,35.1,29.70,North,0,2.2,4.0,92,0.00,,,0.02,WUHU216HW,2013-02-24 10:25:00,
2013-02-24 05:30:00,37.3,35.1,29.70,ESE,113,1.8,4.0,92,0.00,,,0.02,WUHU216HW,2013-02-24 10:30:00,
2013-02-24 05:35:00,37.3,35.1,29.70,NW,315,2.0,5.1,92,0.00,,,0.02,WUHU216HW,2013-02-24 10:35:00,
2013-02-24 05:40:00,37.3,35.1,29.70,NW,315,2.9,5.1,92,0.00,,,0.02,WUHU216HW,2013-02-24 10:40:00,
2013-02-24 05:45:00,37.3,35.1,29.70,NNW,338,1.8,3.8,92,0.00,,,0.02,WUHU216HW,2013-02-24 10:45:00,
2013-02-24 05:50:00,37.3,35.1,29.70,NNE,23,1.6,4.3,92,0.00,,,0.02,WUHU216HW,2013-02-24 10:50:00,
2013-02-24 05:55:00,37.3,35.1,29.69,NW,315,1.8,5.1,92,0.00,,,0.02,WUHU216HW,2013-02-24 10:55:00,
2013-02-24 06:00:00,37.3,35.1,29.70,NNW,338,3.6,5.1,92,0.00,,,0.02,WUHU216HW,2013-02-24 11:00:00,
2013-02-24 06:05:00,37.3,35.1,29.70,NNW,338,0.7,4.3,92,0.00,,,0.02,WUHU216HW,2013-02-24 11:05:00,
2013-02-24 06:10:00,37.3,35.1,29.70,NNE,23,0.0,3.6,92,0.00,,,0.02,WUHU216HW,2013-02-24 11:10:00,
2013-02-24 06:15:00,37.3,35.1,29.71,NNE,23,1.3,2.9,92,0.00,,,0.02,WUHU216HW,2013-02-24 11:15:00,
2013-02-24 06:20:00,37.3,35.1,29.71,North,0,1.6,4.3,92,0.00,,,0.02,WUHU216HW,2013-02-24 11:20:00,
2013-02-24 06:25:00,37.3,35.1,29.71,SE,135,0.4,4.3,92,0.00,,,0.02,WUHU216HW,2013-02-24 11:25:00,
2013-02-24 06:30:00,37.3,35.1,29.71,North,0,0.4,3.1,92,0.00,,,0.02,WUHU216HW,2013-02-24 11:30:00,
2013-02-24 06:35:00,37.3,35.1,29.71,NNW,338,2.5,2.5,92,0.00,,,0.02,WUHU216HW,2013-02-24 11:35:00,
2013-02-24 06:40:00,37.3,35.1,29.71,North,0,0.9,2.5,92,0.00,,,0.02,WUHU216HW,2013-02-24 11:40:00,
2013-02-24 06:45:00,37.3,35.1,29.71,North,0,1.1,3.1,92,0.00,,,0.02,WUHU216HW,2013-02-24 11:45:00,
2013-02-24 06:50:00,37.3,35.1,29.71,NE,45,3.1,3.8,92,0.00,,,0.02,WUHU216HW,2013-02-24 11:50:00,
2013-02-24 06:55:00,37.3,35.1,29.72,NNE,23,1.1,4.0,92,0.00,,,0.02,WUHU216HW,2013-02-24 11:55:00,
2013-02-24 07:00:00,37.3,35.1,29.72,North,0,0.9,4.0,92,0.00,,,0.02,WUHU216HW,2013-02-24 12:00:00,
2013-02-24 07:05:00,37.4,35.3,29.72,NNW,338,0.2,2.0,92,0.00,,,0.02,WUHU216HW,2013-02-24 12:05:00,
2013-02-24 07:10:00,37.3,35.1,29.73,NW,315,1.1,2.0,92,0.00,,,0.02,WUHU216HW,2013-02-24 12:10:00,
2013-02-24 07:15:00,37.4,35.3,29.73,North,0,0.4,1.8,92,0.00,,,0.02,WUHU216HW,2013-02-24 12:15:00,
2013-02-24 07:20:00,37.4,35.3,29.73,North,0,1.8,3.4,92,0.00,,,0.02,WUHU216HW,2013-02-24 12:20:00,
2013-02-24 07:25:00,37.4,35.3,29.72,North,0,1.1,3.4,92,0.00,,,0.02,WUHU216HW,2013-02-24 12:25:00,
2013-02-24 07:30:00,37.4,35.3,29.72,NNE,23,2.2,2.5,92,0.00,,,0.02,WUHU216HW,2013-02-24 12:30:00,
2013-02-24 07:35:00,37.6,35.5,29.72,NNW,338,1.6,2.5,92,0.00,,,0.02,WUHU216HW,2013-02-24 12:35:00,
2013-02-24 07:40:00,37.6,35.5,29.73,WSW,248,2.5,2.5,92,0.00,,,0.02,WUHU216HW,2013-02-24 12:40:00,
2013-02-24 07:45:00,37.6,35.5,29.73,NNW,338,1.8,2.5,92,0.00,,,0.02,WUHU216HW,2013-02-24 12:45:00,
2013-02-24 07:50:00,37.8,35.6,29.73,WNW,293,0.9,4.3,92,0.00,,,0.02,WUHU216HW,2013-02-24 12:50:00,
2013-02-24 07:55:00,37.8,35.6,29.73,NNE,23,2.2,4.3,92,0.00,,,0.02,WUHU216HW,2013-02-24 12:55:00,
2013-02-24 08:00:00,38.0,35.8,29.73,NNW,338,0.4,3.8,92,0.00,,,0.02,WUHU216HW,2013-02-24 13:00:00,
2013-02-24 08:05:00,38.0,35.8,29.73,West,270,1.6,5.1,92,0.00,,,0.02,WUHU216HW,2013-02-24 13:05:00,
2013-02-24 08:10:00,38.2,36.0,29.73,NW,315,1.8,5.1,92,0.00,,,0.02,WUHU216HW,2013-02-24 13:10:00,
2013-02-24 08:15:00,38.2,35.7,29.72,NNW,338,2.7,4.0,91,0.00,,,0.02,WUHU216HW,2013-02-24 13:15:00,
2013-02-24 08:20:00,38.3,35.9,29.72,North,0,2.5,4.7,91,0.00,,,0.02,WUHU216HW,2013-02-24 13:20:00,
2013-02-24 08:25:00,38.5,36.1,29.72,NW,315,1.8,6.0,91,0.00,,,0.02,WUHU216HW,2013-02-24 13:25:00,
2013-02-24 08:30:00,38.9,36.5,29.72,NW,315,1.1,6.0,91,0.00,,,0.02,WUHU216HW,2013-02-24 13:30:00,
2013-02-24 08:35:00,39.1,36.9,29.72,NNW,338,1.1,2.9,92,0.00,,,0.02,WUHU216HW,2013-02-24 13:35:00,
2013-02-24 08:40:00,39.2,37.1,29.72,NW,315,1.6,3.8,92,0.00,,,0.02,WUHU216HW,2013-02-24 13:40:00,
2013-02-24 08:45:00,39.4,37.0,29.72,NNW,338,2.7,3.8,91,0.00,,,0.02,WUHU216HW,2013-02-24 13:45:00,
2013-02-24 08:50:00,39.6,37.2,29.72,North,0,2.0,6.3,91,0.00,,,0.02,WUHU216HW,2013-02-24 13:50:00,
2013-02-24 08:55:00,39.8,37.4,29.72,NW,315,1.1,6.3,91,0.00,,,0.02,WUHU216HW,2013-02-24 13:55:00,
2013-02-24 09:00:00,40.0,37.5,29.73,North,0,2.9,5.4,91,0.00,,,0.02,WUHU216HW,2013-02-24 14:00:00,
2013-02-24 09:05:00,40.1,37.4,29.73,North,0,1.1,5.4,90,0.00,,,0.02,WUHU216HW,2013-02-24 14:05:00,
2013-02-24 09:10:00,40.1,37.4,29.73,North,0,2.5,5.4,90,0.00,,,0.02,WUHU216HW,2013-02-24 14:10:00,
2013-02-24 09:15:00,40.3,37.6,29.73,NNW,338,2.9,4.5,90,0.00,,,0.02,WUHU216HW,2013-02-24 14:15:00,
2013-02-24 09:20:00,40.5,37.8,29.72,North,0,1.8,4.3,90,0.00,,,0.02,WUHU216HW,2013-02-24 14:20:00,
2013-02-24 09:25:00,41.0,38.3,29.72,NW,315,3.4,4.3,90,0.00,,,0.02,WUHU216HW,2013-02-24 14:25:00,
2013-02-24 09:30:00,41.4,38.4,29.72,NNE,23,0.7,5.6,89,0.00,,,0.02,WUHU216HW,2013-02-24 14:30:00,
2013-02-24 09:35:00,41.4,38.1,29.72,NNW,338,2.0,5.6,88,0.00,,,0.02,WUHU216HW,2013-02-24 14:35:00,
2013-02-24 09:40:00,41.8,38.4,29.72,NNW,338,1.8,3.4,88,0.00,,,0.02,WUHU216HW,2013-02-24 14:40:00,
2013-02-24 09:45:00,41.9,38.6,29.72,NW,315,2.0,3.4,88,0.00,,,0.02,WUHU216HW,2013-02-24 14:45:00,
2013-02-24 09:50:00,42.1,38.5,29.72,NNE,23,3.4,3.4,87,0.00,,,0.02,WUHU216HW,2013-02-24 14:50:00,
2013-02-24 09:55:00,41.9,38.4,29.72,North,0,2.0,3.4,87,0.00,,,0.02,WUHU216HW,2013-02-24 14:55:00,
2013-02-24 10:00:00,42.1,38.5,29.72,NNW,338,1.8,4.3,87,0.00,,,0.02,WUHU216HW,2013-02-24 15:00:00,
2013-02-24 10:05:00,42.5,38.9,29.72,North,0,1.8,4.3,87,0.00,,,0.02,WUHU216HW,2013-02-24 15:05:00,
2013-02-24 10:10:00,42.7,39.1,29.72,NNW,338,1.8,3.8,87,0.00,,,0.02,WUHU216HW,2013-02-24 15:10:00,
2013-02-24 10:15:00,43.4,40.1,29.72,NNW,338,4.5,5.6,88,0.00,,,0.02,WUHU216HW,2013-02-24 15:15:00,
2013-02-24 10:20:00,44.1,40.5,29.72,SSW,203,1.1,5.6,87,0.00,,,0.02,WUHU216HW,2013-02-24 15:20:00,
2013-02-24 10:25:00,44.6,40.4,29.72,North,0,1.8,6.9,85,0.00,,,0.02,WUHU216HW,2013-02-24 15:25:00,
2013-02-24 10:30:00,45.0,40.1,29.72,North,0,4.9,6.9,83,0.00,,,0.02,WUHU216HW,2013-02-24 15:30:00,
2013-02-24 10:35:00,45.2,40.3,29.72,West,270,4.0,6.0,83,0.00,,,0.02,WUHU216HW,2013-02-24 15:35:00,
2013-02-24 10:40:00,45.5,40.7,29.72,North,0,1.6,6.0,83,0.00,,,0.02,WUHU216HW,2013-02-24 15:40:00,
2013-02-24 10:45:00,45.4,39.9,29.72,West,270,1.8,6.0,81,0.00,,,0.02,WUHU216HW,2013-02-24 15:45:00,
2013-02-24 10:50:00,45.2,40.1,29.72,North,0,4.0,8.1,82,0.00,,,0.02,WUHU216HW,2013-02-24 15:50:00,
2013-02-24 10:55:00,45.0,39.2,29.72,NW,315,5.6,8.1,80,0.00,,,0.02,WUHU216HW,2013-02-24 15:55:00,
2013-02-24 11:00:00,45.0,39.5,29.72,SSE,158,3.4,7.6,81,0.00,,,0.02,WUHU216HW,2013-02-24 16:00:00,
2013-02-24 11:05:00,45.4,40.2,29.72,West,270,1.8,7.6,82,0.00,,,0.02,WUHU216HW,2013-02-24 16:05:00,
2013-02-24 11:10:00,45.5,40.1,29.72,NNW,338,2.7,5.6,81,0.00,,,0.02,WUHU216HW,2013-02-24 16:10:00,
2013-02-24 11:15:00,45.7,40.0,29.72,West,270,3.6,5.6,80,0.00,,,0.02,WUHU216HW,2013-02-24 16:15:00,
2013-02-24 11:20:00,45.7,39.2,29.72,North,0,4.3,8.5,78,0.00,,,0.02,WUHU216HW,2013-02-24 16:20:00,
2013-02-24 11:25:00,45.5,39.4,29.72,WNW,293,2.5,8.5,79,0.00,,,0.02,WUHU216HW,2013-02-24 16:25:00,
2013-02-24 11:30:00,45.5,39.8,29.72,West,270,1.3,8.5,80,0.00,,,0.02,WUHU216HW,2013-02-24 16:30:00,
2013-02-24 11:35:00,45.5,39.8,29.73,SW,225,2.5,8.5,80,0.00,,,0.02,WUHU216HW,2013-02-24 16:35:00,
2013-02-24 11:40:00,45.5,39.4,29.73,North,0,3.8,5.8,79,0.00,,,0.02,WUHU216HW,2013-02-24 16:40:00,
2013-02-24 11:45:00,45.5,39.1,29.73,West,270,2.7,6.7,78,0.00,,,0.02,WUHU216HW,2013-02-24 16:45:00,
2013-02-24 11:50:00,45.4,39.2,29.73,NNE,23,1.1,7.6,79,0.00,,,0.02,WUHU216HW,2013-02-24 16:50:00,
2013-02-24 11:55:00,45.4,38.6,29.73,North,0,4.3,7.8,77,0.00,,,0.02,WUHU216HW,2013-02-24 16:55:00,
2013-02-24 12:00:00,45.4,38.9,29.72,SW,225,1.8,8.3,78,0.00,,,0.02,WUHU216HW,2013-02-24 17:00:00,
2013-02-24 12:05:00,45.4,38.6,29.72,NNW,338,1.8,8.3,77,0.00,,,0.02,WUHU216HW,2013-02-24 17:05:00,
2013-02-24 12:10:00,45.7,39.0,29.72,SSW,203,4.0,6.9,77,0.00,,,0.02,WUHU216HW,2013-02-24 17:10:00,
2013-02-24 12:15:00,45.7,39.2,29.72,NW,315,2.2,6.3,78,0.00,,,0.02,WUHU216HW,2013-02-24 17:15:00,
2013-02-24 12:20:00,45.9,39.2,29.72,West,270,2.2,6.3,77,0.00,,,0.02,WUHU216HW,2013-02-24 17:20:00,
2013-02-24 12:25:00,45.5,38.8,29.72,NNW,338,1.3,5.6,77,0.00,,,0.02,WUHU216HW,2013-02-24 17:25:00,
2013-02-24 12:30:00,45.4,38.6,29.72,North,0,1.1,7.2,77,0.00,,,0.02,WUHU216HW,2013-02-24 17:30:00,
2013-02-24 12:35:00,45.4,38.6,29.72,SW,225,2.7,7.2,77,0.00,,,0.02,WUHU216HW,2013-02-24 17:35:00,
2013-02-24 12:40:00,45.5,38.8,29.72,WSW,248,1.8,6.3,77,0.00,,,0.02,WUHU216HW,2013-02-24 17:40:00,
2013-02-24 12:45:00,45.4,38.3,29.72,West,270,4.0,6.3,76,0.00,,,0.02,WUHU216HW,2013-02-24 17:45:00,
2013-02-24 12:50:00,45.4,38.6,29.72,WSW,248,3.8,4.7,77,0.00,,,0.02,WUHU216HW,2013-02-24 17:50:00,
2013-02-24 12:55:00,45.4,38.3,29.72,North,0,1.8,4.0,76,0.00,,,0.02,WUHU216HW,2013-02-24 17:55:00,
2013-02-24 13:00:00,45.2,37.4,29.71,NW,315,6.0,6.0,74,0.00,,,0.02,WUHU216HW,2013-02-24 18:00:00,
2013-02-24 13:05:00,45.4,38.3,29.71,NNE,23,1.3,6.0,76,0.00,,,0.02,WUHU216HW,2013-02-24 18:05:00,
2013-02-24 13:10:00,45.4,37.9,29.72,ENE,68,2.0,6.0,75,0.00,,,0.02,WUHU216HW,2013-02-24 18:10:00,
2013-02-24 13:15:00,45.4,38.3,29.71,East,90,1.8,6.0,76,0.00,,,0.02,WUHU216HW,2013-02-24 18:15:00,
2013-02-24 13:20:00,45.7,38.6,29.71,NNE,23,4.0,7.4,76,0.00,,,0.02,WUHU216HW,2013-02-24 18:20:00,
2013-02-24 13:25:00,46.1,38.3,29.71,NNW,338,4.5,7.4,74,0.00,,,0.02,WUHU216HW,2013-02-24 18:25:00,
2013-02-24 13:30:00,46.1,38.3,29.71,North,0,1.1,5.6,74,0.00,,,0.02,WUHU216HW,2013-02-24 18:30:00,
2013-02-24 13:35:00,46.3,38.4,29.70,NW,315,4.0,6.3,74,0.00,,,0.02,WUHU216HW,2013-02-24 18:35:00,
2013-02-24 13:40:00,46.1,37.9,29.70,West,270,5.4,6.3,73,0.00,,,0.02,WUHU216HW,2013-02-24 18:40:00,
2013-02-24 13:45:00,46.1,37.6,29.70,NNE,23,3.8,6.3,72,0.00,,,0.02,WUHU216HW,2013-02-24 18:45:00,
2013-02-24 13:50:00,46.1,38.6,29.70,WSW,248,1.3,6.3,75,0.00,,,0.02,WUHU216HW,2013-02-24 18:50:00,
2013-02-24 13:55:00,46.1,37.9,29.70,NW,315,3.1,7.2,73,0.00,,,0.02,WUHU216HW,2013-02-24 18:55:00,
2013-02-24 14:00:00,46.1,38.3,29.70,North,0,0.9,7.2,74,0.00,,,0.02,WUHU216HW,2013-02-24 19:00:00,
2013-02-24 14:05:00,46.3,38.4,29.70,North,0,1.3,4.9,74,0.00,,,0.02,WUHU216HW,2013-02-24 19:05:00,
2013-02-24 14:10:00,46.4,38.3,29.70,NW,315,3.6,4.9,73,0.00,,,0.02,WUHU216HW,2013-02-24 19:10:00,
2013-02-24 14:15:00,46.6,38.4,29.70,NW,315,1.1,8.1,73,0.00,,,0.02,WUHU216HW,2013-02-24 19:15:00,
2013-02-24 14:20:00,46.8,38.3,29.70,NW,315,4.0,8.1,72,0.00,,,0.02,WUHU216HW,2013-02-24 19:20:00,
2013-02-24 14:25:00,47.0,38.8,29.70,North,0,3.8,7.6,73,0.00,,,0.02,WUHU216HW,2013-02-24 19:25:00,
2013-02-24 14:30:00,47.2,38.6,29.70,NNE,23,6.3,6.7,72,0.00,,,0.02,WUHU216HW,2013-02-24 19:30:00,
2013-02-24 14:35:00,47.3,39.1,29.70,NNW,338,1.6,6.3,73,0.00,,,0.02,WUHU216HW,2013-02-24 19:35:00,
2013-02-24 14:40:00,47.2,38.6,29.70,North,0,3.1,5.8,72,0.00,,,0.02,WUHU216HW,2013-02-24 19:40:00,
2013-02-24 14:45:00,46.8,38.6,29.71,West,270,4.5,5.8,73,0.00,,,0.02,WUHU216HW,2013-02-24 19:45:00,
2013-02-24 14:50:00,46.6,38.4,29.71,NNW,338,2.5,4.7,73,0.00,,,0.02,WUHU216HW,2013-02-24 19:50:00,
2013-02-24 14:55:00,46.8,38.6,29.71,NW,315,3.4,4.7,73,0.00,,,0.02,WUHU216HW,2013-02-24 19:55:00,
2013-02-24 15:00:00,46.6,38.8,29.70,North,0,1.8,4.9,74,0.00,,,0.02,WUHU216HW,2013-02-24 20:00:00,
2013-02-24 15:05:00,46.6,38.8,29.70,NNW,338,2.0,4.9,74,0.00,,,0.02,WUHU216HW,2013-02-24 20:05:00,
2013-02-24 15:10:00,46.4,38.3,29.70,WNW,293,3.4,4.5,73,0.00,,,0.02,WUHU216HW,2013-02-24 20:10:00,
2013-02-24 15:15:00,46.4,38.3,29.70,North,0,1.8,6.3,73,0.00,,,0.02,WUHU216HW,2013-02-24 20:15:00,
2013-02-24 15:20:00,46.4,38.3,29.70,NNW,338,1.8,6.3,73,0.00,,,0.02,WUHU216HW,2013-02-24 20:20:00,
2013-02-24 15:25:00,46.4,38.0,29.70,NNW,338,0.7,5.1,72,0.00,,,0.02,WUHU216HW,2013-02-24 20:25:00,
2013-02-24 15:30:00,46.4,38.0,29.71,NNW,338,1.8,4.5,72,0.00,,,0.02,WUHU216HW,2013-02-24 20:30:00,
2013-02-24 15:35:00,46.1,35.4,29.71,West,270,6.7,6.7,66,0.00,,,0.02,WUHU216HW,2013-02-24 20:35:00,
2013-02-24 15:40:00,45.9,35.9,29.72,North,0,1.3,8.1,68,0.00,,,0.02,WUHU216HW,2013-02-24 20:40:00,
2013-02-24 15:45:00,45.7,35.0,29.72,North,0,2.5,9.2,66,0.00,,,0.02,WUHU216HW,2013-02-24 20:45:00,
2013-02-24 15:50:00,45.5,33.3,29.72,NNE,23,3.8,9.2,62,0.00,,,0.02,WUHU216HW,2013-02-24 20:50:00,
2013-02-24 15:55:00,45.5,33.7,29.72,SW,225,4.7,6.5,63,0.00,,,0.02,WUHU216HW,2013-02-24 20:55:00,
2013-02-24 16:00:00,45.2,32.6,29.73,West,270,6.0,7.8,61,0.00,,,0.02,WUHU216HW,2013-02-24 21:00:00,
2013-02-24 16:05:00,45.0,32.8,29.73,NNW,338,4.5,7.8,62,0.00,,,0.02,WUHU216HW,2013-02-24 21:05:00,
2013-02-24 16:10:00,44.6,32.9,29.74,SW,225,2.7,6.0,63,0.00,,,0.02,WUHU216HW,2013-02-24 21:10:00,
2013-02-24 16:15:00,44.5,32.2,29.74,SSE,158,2.7,8.9,62,0.00,,,0.02,WUHU216HW,2013-02-24 21:15:00,
2013-02-24 16:20:00,44.3,32.0,29.74,WSW,248,3.6,8.9,62,0.00,,,0.02,WUHU216HW,2013-02-24 21:20:00,
2013-02-24 16:25:00,44.1,31.5,29.74,NW,315,4.0,8.1,61,0.00,,,0.02,WUHU216HW,2013-02-24 21:25:00,
2013-02-24 16:30:00,43.9,31.8,29.75,NW,315,1.6,8.1,62,0.00,,,0.02,WUHU216HW,2013-02-24 21:30:00,
2013-02-24 16:35:00,43.7,30.3,29.75,West,270,3.6,9.8,59,0.00,,,0.02,WUHU216HW,2013-02-24 21:35:00,
2013-02-24 16:40:00,43.6,30.6,29.75,NW,315,4.7,9.8,60,0.00,,,0.02,WUHU216HW,2013-02-24 21:40:00,
2013-02-24 16:45:00,43.6,30.6,29.76,West,270,4.5,8.5,60,0.00,,,0.02,WUHU216HW,2013-02-24 21:45:00,
2013-02-24 16:50:00,43.4,31.2,29.76,WSW,248,3.4,7.4,62,0.00,,,0.02,WUHU216HW,2013-02-24 21:50:00,
2013-02-24 16:55:00,43.2,30.6,29.76,North,0,5.4,7.6,61,0.00,,,0.02,WUHU216HW,2013-02-24 21:55:00,
2013-02-24 17:00:00,42.8,31.1,29.77,SW,225,3.4,7.6,63,0.00,,,0.02,WUHU216HW,2013-02-24 22:00:00,
2013-02-24 17:05:00,42.8,30.7,29.77,West,270,2.5,5.6,62,0.00,,,0.02,WUHU216HW,2013-02-24 22:05:00,
2013-02-24 17:10:00,42.8,31.1,29.77,West,270,3.6,5.6,63,0.00,,,0.02,WUHU216HW,2013-02-24 22:10:00,
2013-02-24 17:15:00,42.7,30.2,29.77,West,270,4.0,7.8,61,0.00,,,0.02,WUHU216HW,2013-02-24 22:15:00,
2013-02-24 17:20:00,42.5,30.3,29.78,West,270,2.7,7.8,62,0.00,,,0.02,WUHU216HW,2013-02-24 22:20:00,
2013-02-24 17:25:00,42.1,29.6,29.78,NNW,338,3.8,7.4,61,0.00,,,0.02,WUHU216HW,2013-02-24 22:25:00,
2013-02-24 17:30:00,42.1,30.0,29.79,North,0,3.6,7.2,62,0.00,,,0.02,WUHU216HW,2013-02-24 22:30:00,
2013-02-24 17:35:00,41.8,29.7,29.79,SSW,203,3.4,9.2,62,0.00,,,0.02,WUHU216HW,2013-02-24 22:35:00,
2013-02-24 17:40:00,41.6,29.9,29.79,North,0,0.9,9.2,63,0.00,,,0.02,WUHU216HW,2013-02-24 22:40:00,
2013-02-24 17:45:00,41.4,29.7,29.79,West,270,1.6,6.9,63,0.00,,,0.02,WUHU216HW,2013-02-24 22:45:00,
2013-02-24 17:50:00,41.0,29.4,29.80,WSW,248,4.5,8.9,63,0.00,,,0.02,WUHU216HW,2013-02-24 22:50:00,
2013-02-24 17:55:00,40.9,29.3,29.80,West,270,7.6,8.9,63,0.00,,,0.02,WUHU216HW,2013-02-24 22:55:00,
2013-02-24 18:00:00,40.7,29.1,29.80,North,0,4.5,8.9,63,0.00,,,0.02,WUHU216HW,2013-02-24 23:00:00,
2013-02-24 18:05:00,40.5,29.3,29.80,WNW,293,2.5,8.9,64,0.00,,,0.02,WUHU216HW,2013-02-24 23:05:00,
2013-02-24 18:10:00,40.3,28.7,29.81,NNW,338,2.2,5.4,63,0.00,,,0.02,WUHU216HW,2013-02-24 23:10:00,
2013-02-24 18:15:00,40.3,28.7,29.81,South,180,0.7,6.5,63,0.00,,,0.02,WUHU216HW,2013-02-24 23:15:00,
2013-02-24 18:20:00,40.1,28.5,29.82,NNW,338,2.0,6.5,63,0.00,,,0.02,WUHU216HW,2013-02-24 23:20:00,
2013-02-24 18:25:00,40.0,28.4,29.82,NW,315,2.5,6.7,63,0.00,,,0.02,WUHU216HW,2013-02-24 23:25:00,
2013-02-24 18:30:00,40.0,28.4,29.82,NW,315,1.8,9.4,63,0.00,,,0.02,WUHU216HW,2013-02-24 23:30:00,
2013-02-24 18:35:00,39.8,28.2,29.83,WNW,293,3.1,9.4,63,0.00,,,0.02,WUHU216HW,2013-02-24 23:35:00,
2013-02-24 18:40:00,39.6,27.5,29.83,SW,225,4.5,8.5,62,0.00,,,0.02,WUHU216HW,2013-02-24 23:40:00,
2013-02-24 18:45:00,39.4,27.0,29.84,WNW,293,3.6,8.5,61,0.00,,,0.02,WUHU216HW,2013-02-24 23:45:00,
2013-02-24 18:50:00,39.2,26.8,29.84,WNW,293,4.9,7.4,61,0.00,,,0.02,WUHU216HW,2013-02-24 23:50:00,
2013-02-24 18:55:00,39.2,26.5,29.84,NNE,23,6.3,7.6,60,0.00,,,0.02,WUHU216HW,2013-02-24 23:55:00,
2013-02-24 19:00:00,39.2,26.8,29.85,NNE,23,3.6,7.6,61,0.00,,,0.02,WUHU216HW,2013-02-25 00:00:00,
2013-02-24 19:05:00,39.1,26.6,29.85,North,0,2.9,8.7,61,0.00,,,0.02,WUHU216HW,2013-02-25 00:05:00,
2013-02-24 19:10:00,38.9,26.1,29.85,NNW,338,5.4,8.7,60,0.00,,,0.02,WUHU216HW,2013-02-25 00:10:00,
2013-02-24 19:15:00,38.9,26.1,29.85,South,180,0.4,6.9,60,0.00,,,0.02,WUHU216HW,2013-02-25 00:15:00,
2013-02-24 19:20:00,38.9,26.6,29.85,West,270,1.8,6.0,61,0.00,,,0.02,WUHU216HW,2013-02-25 00:20:00,
2013-02-24 19:25:00,38.7,26.7,29.86,NNW,338,4.7,6.7,62,0.00,,,0.02,WUHU216HW,2013-02-25 00:25:00,
2013-02-24 19:30:00,38.7,26.7,29.86,SW,225,0.7,6.7,62,0.00,,,0.02,WUHU216HW,2013-02-25 00:30:00,
2013-02-24 19:35:00,38.5,26.6,29.86,NNW,338,7.4,7.8,62,0.00,,,0.02,WUHU216HW,2013-02-25 00:35:00,
2013-02-24 19:40:00,38.3,26.8,29.87,NNW,338,4.5,11.4,63,0.00,,,0.02,WUHU216HW,2013-02-25 00:40:00,
2013-02-24 19:45:00,38.2,26.7,29.87,NW,315,2.5,11.4,63,0.00,,,0.02,WUHU216HW,2013-02-25 00:45:00,
2013-02-24 19:50:00,37.8,26.6,29.87,North,0,2.0,8.7,64,0.00,,,0.02,WUHU216HW,2013-02-25 00:50:00,
2013-02-24 19:55:00,37.8,27.1,29.87,NNE,23,1.8,8.7,65,0.00,,,0.02,WUHU216HW,2013-02-25 00:55:00,
2013-02-24 20:00:00,37.6,26.9,29.88,NNW,338,3.8,7.6,65,0.00,,,0.02,WUHU216HW,2013-02-25 01:00:00,
2013-02-24 20:05:00,37.4,26.7,29.88,WSW,248,2.5,6.7,65,0.00,,,0.02,WUHU216HW,2013-02-25 01:05:00,
2013-02-24 20:10:00,37.4,26.4,29.88,NNW,338,4.5,7.8,64,0.00,,,0.02,WUHU216HW,2013-02-25 01:10:00,
2013-02-24 20:15:00,37.4,26.7,29.88,WSW,248,5.4,7.8,65,0.00,,,0.02,WUHU216HW,2013-02-25 01:15:00,
2013-02-24 20:20:00,37.4,26.7,29.88,WSW,248,4.5,6.9,65,0.00,,,0.02,WUHU216HW,2013-02-25 01:20:00,
2013-02-24 20:25:00,37.4,26.7,29.89,NNW,338,5.4,6.9,65,0.00,,,0.02,WUHU216HW,2013-02-25 01:25:00,
2013-02-24 20:30:00,37.3,26.6,29.89,NW,315,2.2,6.9,65,0.00,,,0.02,WUHU216HW,2013-02-25 01:30:00,
2013-02-24 20:35:00,37.3,26.9,29.89,WNW,293,2.5,6.9,66,0.00,,,0.02,WUHU216HW,2013-02-25 01:35:00,
2013-02-24 20:40:00,37.3,26.6,29.89,ENE,68,2.5,6.3,65,0.00,,,0.02,WUHU216HW,2013-02-25 01:40:00,
2013-02-24 20:45:00,37.1,26.4,29.89,NW,315,1.6,7.6,65,0.00,,,0.02,WUHU216HW,2013-02-25 01:45:00,
2013-02-24 20:50:00,37.1,26.7,29.90,SW,225,0.4,7.6,66,0.00,,,0.02,WUHU216HW,2013-02-25 01:50:00,
2013-02-24 20:55:00,37.1,26.7,29.90,NNW,338,2.5,6.9,66,0.00,,,0.02,WUHU216HW,2013-02-25 01:55:00,
2013-02-24 21:00:00,37.1,26.7,29.90,West,270,0.9,6.9,66,0.00,,,0.02,WUHU216HW,2013-02-25 02:00:00,
2013-02-24 21:05:00,37.1,26.7,29.90,WNW,293,0.4,5.6,66,0.00,,,0.02,WUHU216HW,2013-02-25 02:05:00,
2013-02-24 21:10:00,37.1,26.7,29.90,NW,315,1.6,5.8,66,0.00,,,0.02,WUHU216HW,2013-02-25 02:10:00,
2013-02-24 21:15:00,36.9,26.2,29.90,NNW,338,4.5,7.8,65,0.00,,,0.02,WUHU216HW,2013-02-25 02:15:00,
2013-02-24 21:20:00,36.9,25.8,29.90,NW,315,3.4,8.9,64,0.00,,,0.02,WUHU216HW,2013-02-25 02:20:00,
2013-02-24 21:25:00,36.9,26.2,29.90,North,0,4.5,8.9,65,0.00,,,0.02,WUHU216HW,2013-02-25 02:25:00,
2013-02-24 21:30:00,36.7,26.0,29.90,East,90,1.3,6.3,65,0.00,,,0.02,WUHU216HW,2013-02-25 02:30:00,
2013-02-24 21:35:00,36.7,25.7,29.90,North,0,1.8,7.6,64,0.00,,,0.02,WUHU216HW,2013-02-25 02:35:00,
2013-02-24 21:40:00,36.5,25.5,29.90,WNW,293,1.6,8.9,64,0.00,,,0.02,WUHU216HW,2013-02-25 02:40:00,
2013-02-24 21:45:00,36.5,25.9,29.90,NW,315,2.7,8.9,65,0.00,,,0.02,WUHU216HW,2013-02-25 02:45:00,
2013-02-24 21:50:00,36.4,25.8,29.90,NNW,338,1.8,4.7,65,0.00,,,0.02,WUHU216HW,2013-02-25 02:50:00,
2013-02-24 21:55:00,36.4,25.8,29.91,NW,315,3.6,4.7,65,0.00,,,0.02,WUHU216HW,2013-02-25 02:55:00,
2013-02-24 22:00:00,36.4,25.8,29.91,WNW,293,2.0,5.6,65,0.00,,,0.02,WUHU216HW,2013-02-25 03:00:00,
2013-02-24 22:05:00,36.2,25.6,29.91,NNE,23,1.6,5.6,65,0.00,,,0.02,WUHU216HW,2013-02-25 03:05:00,
2013-02-24 22:10:00,36.2,25.9,29.91,WNW,293,2.7,4.9,66,0.00,,,0.02,WUHU216HW,2013-02-25 03:10:00,
2013-02-24 22:15:00,36.0,25.4,29.91,North,0,0.4,4.3,65,0.00,,,0.02,WUHU216HW,2013-02-25 03:15:00,
2013-02-24 22:20:00,36.0,25.0,29.91,NW,315,2.5,6.3,64,0.00,,,0.02,WUHU216HW,2013-02-25 03:20:00,
2013-02-24 22:25:00,35.8,25.2,29.91,WNW,293,4.9,6.3,65,0.00,,,0.02,WUHU216HW,2013-02-25 03:25:00,
2013-02-24 22:30:00,35.6,25.0,29.91,NW,315,3.4,5.4,65,0.00,,,0.02,WUHU216HW,2013-02-25 03:30:00,
2013-02-24 22:35:00,35.6,25.0,29.91,WNW,293,1.8,6.0,65,0.00,,,0.02,WUHU216HW,2013-02-25 03:35:00,
2013-02-24 22:40:00,35.6,25.4,29.91,South,180,1.8,6.0,66,0.00,,,0.02,WUHU216HW,2013-02-25 03:40:00,
2013-02-24 22:45:00,35.6,25.4,29.91,NW,315,6.9,6.9,66,0.00,,,0.02,WUHU216HW,2013-02-25 03:45:00,
2013-02-24 22:50:00,35.5,25.2,29.91,North,0,1.1,6.9,66,0.00,,,0.02,WUHU216HW,2013-02-25 03:50:00,
2013-02-24 22:55:00,35.5,24.8,29.92,NW,315,3.1,6.9,65,0.00,,,0.02,WUHU216HW,2013-02-25 03:55:00,
2013-02-24 23:00:00,35.3,24.7,29.92,SSW,203,2.7,4.3,65,0.00,,,0.02,WUHU216HW,2013-02-25 04:00:00,
2013-02-24 23:05:00,35.1,24.5,29.92,WNW,293,0.4,4.0,65,0.00,,,0.02,WUHU216HW,2013-02-25 04:05:00,
2013-02-24 23:10:00,35.1,24.8,29.91,NW,315,2.5,3.6,66,0.00,,,0.02,WUHU216HW,2013-02-25 04:10:00,
2013-02-24 23:15:00,34.9,24.7,29.92,NW,315,1.6,5.4,66,0.00,,,0.02,WUHU216HW,2013-02-25 04:15:00,
2013-02-24 23:20:00,34.9,24.7,29.91,NW,315,4.5,5.4,66,0.00,,,0.02,WUHU216HW,2013-02-25 04:20:00,
2013-02-24 23:25:00,34.9,24.7,29.91,SW,225,0.9,5.6,66,0.00,,,0.02,WUHU216HW,2013-02-25 04:25:00,
2013-02-24 23:30:00,34.9,24.7,29.91,West,270,1.1,5.6,66,0.00,,,0.02,WUHU216HW,2013-02-25 04:30:00,
2013-02-24 23:35:00,34.7,24.5,29.91,NW,315,2.2,3.8,66,0.00,,,0.02,WUHU216HW,2013-02-25 04:35:00,
2013-02-24 23:40:00,34.7,24.5,29.91,NW,315,4.5,4.5,66,0.00,,,0.02,WUHU216HW,2013-02-25 04:40:00,
2013-02-24 23:45:00,34.7,24.5,29.91,NNW,338,2.7,4.7,66,0.00,,,0.02,WUHU216HW,2013-02-25 04:45:00,
2013-02-24 23:50:00,34.6,24.7,29.92,NW,315,2.0,4.7,67,0.00,,,0.02,WUHU216HW,2013-02-25 04:50:00,
2013-02-24 23:55:00,34.6,24.7,29.92,North,0,3.4,4.5,67,0.00,,,0.02,WUHU216HW,2013-02-25 04:55:00,